STARLINK-4482 (53530 NORAD) Tracking and Keplerian Element Data

This shows tracking and keplerian element data for the satellite.

Feedback or suggestion? Click here.




ElementValue
Catalog53530
NameSTARLINK-4482
Epoch Orbit1427
Epoch Day324.85887301
Epoch Year2022
RAAN82.8128
Inclination53.2151
Eccentricity0.0001851
Argument of Perigee48.7521
Mean Anonmoly311.363
Mean Motion15.08840336
Decay Rate2.539E-05
L11 53530U 22101D 22324.85887301 .00002539 00000+0 17757-3 0 9993
L22 53530 53.2151 82.8128 0001851 48.7521 311.3630 15.08840336 14275



Live tracking and technical data element details for STARLINK-4482 (NORAD 53530). STARLINK-4482 can be tracked NOW for your location showing map with azimuth and elevation plus other details from your city location.







IsCatalogInMostPopularTable: catalog: 53530, numindb: 2
Update: records affected: 1



GetName: 53530 STARLINK-4482

Hit Count: updated at: Thu, 08 Dec 2022 19:54:39 GMT